Wind_Speed
5 1 2 4 3 4 3 6 2 1 2 1 4 3 5 4 4 5 14 15 18 36 37 33 29 29 25 22 21 20 20 19 19 19 18 18 17 17 18 18 19 18 18 17 16 17 18 17 17
5 2 4 3 4 2 5 4 5 7 2 4 3 3 4 4 2 8 2 5 23 37 37 33 31 29 25 22 21 21 20 20 20 19 19 18 18 17 17 18 19 19 18 18 18 19 18 17 17
3 3 4 4 4 6 5 5 7 6 5 3 3 1 0 4 7 4 4 9 24 35 36 31 34 28 24 23 22 21 21 20 20 19 19 19 18 18 17 17 18 18 18 18 19 19 18 18 18
2 6 4 3 6 6 5 3 1 6 2 5 1 5 4 7 10 10 11 14 28 30 29 34 31 28 26 23 22 21 21 21 20 20 20 20 18 17 17 16 17 17 18 18 19 18 18 19 18
5 3 3 1 5 5 4 4 4 3 3 3 1 4 3 6 10 5 8 21 26 25 29 30 29 29 26 24 22 22 21 21 20 20 20 19 18 17 16 16 17 17 18 18 18 19 19 18 17
4 3 2 4 5 6 6 4 3 5 4 3 1 2 2 5 9 4 11 20 26 24 28 28 27 26 26 24 24 23 21 21 21 20 20 19 18 17 16 16 16 17 18 19 19 19 19 17 16
5 4 3 3 4 4 4 1 1 2 3 5 1 2 2 4 6 6 14 18 22 23 27 26 27 25 25 26 25 24 22 21 21 20 20 19 18 17 16 16 16 16 17 19 20 19 19 18 17
5 4 3 4 3 5 3 2 1 2 4 1 3 3 4 1 3 9 14 19 21 22 26 26 25 24 24 24 25 24 23 22 21 21 21 20 19 17 15 16 16 17 17 20 19 19 19 18 19
3 3 3 5 6 4 2 1 2 1 4 1 3 3 4 2 5 13 15 20 23 22 25 28 26 25 25 24 23 24 23 23 22 21 22 21 20 19 18 17 17 17 19 21 19 19 19 19 20
4 4 8 5 5 4 2 4 3 2 3 3 4 3 5 6 6 14 15 6 18 21 23 30 29 26 24 26 25 25 24 24 25 23 22 22 19 18 19 18 19 19 21 20 20 20 20 20 22
5 5 5 5 7 4 3 3 4 5 5 8 8 6 9 9 9 13 10 7 5 7 26 30 30 29 28 28 27 27 27 27 24 23 22 21 20 20 20 21 22 24 23 21 21 23 21 20 21
3 7 6 4 3 3 4 3 4 9 13 9 7 5 7 10 9 12 13 22 8 6 13 31 31 31 31 29 29 30 29 26 25 24 23 22 22 22 22 22 23 23 22 22 22 23 22 21 19
4 4 6 6 6 6 5 9 9 12 14 9 8 7 9 12 13 18 18 15 20 11 2 10 35 36 33 30 30 30 29 28 26 25 23 23 23 23 23 24 23 21 21 21 23 24 22 21 20
1 4 7 7 8 6 8 6 6 13 6 9 8 11 11 11 14 18 19 23 27 26 16 12 29 40 36 33 32 31 30 28 28 27 24 22 23 24 24 25 23 21 21 22 23 24 22 21 21
4 7 7 8 3 6 6 4 10 20 2 10 9 10 11 11 16 20 22 19 24 34 38 24 34 41 39 36 34 33 31 30 30 28 25 23 23 24 24 23 23 22 22 24 24 25 22 21 21
3 1 4 3 5 2 5 7 7 8 5 9 9 9 12 13 16 21 19 21 22 25 30 26 40 44 41 38 38 36 33 32 31 29 26 25 24 23 23 23 22 24 23 25 27 27 25 23 22
1 4 5 8 4 2 5 6 8 3 5 10 9 9 9 11 8 19 25 24 23 25 29 29 39 45 44 39 38 37 35 34 33 30 28 27 25 23 22 23 24 26 26 26 27 28 26 26 24
5 4 5 5 1 1 5 15 12 14 10 12 13 9 9 8 14 20 25 27 18 35 36 45 45 40 44 39 37 35 35 34 34 33 29 29 27 24 23 23 24 26 28 28 28 28 26 26 26
2 2 5 4 7 4 9 9 16 11 13 15 14 12 12 10 9 21 24 24 13 7 31 41 36 37 39 38 38 34 35 35 33 32 28 29 27 26 27 25 26 28 29 31 30 29 28 26 27
5 5 7 7 4 5 9 19 22 14 11 15 16 13 13 6 5 8 16 19 18 12 22 25 28 38 38 37 38 26 32 34 31 29 27 28 27 26 29 27 29 29 30 31 33 34 31 27 31
5 6 4 7 5 5 6 8 5 4 2 6 9 11 7 11 9 8 10 20 22 22 28 30 29 32 34 33 31 23 28 23 29 30 30 30 28 28 29 28 28 30 31 33 35 36 33 26 28
7 8 10 8 1 4 4 6 5 7 8 5 8 9 7 9 8 6 8 13 23 27 28 37 33 35 35 36 34 32 31 20 25 31 30 29 27 28 28 28 27 29 30 33 35 35 32 31 27
7 6 7 4 3 3 1 2 6 5 2 5 7 8 10 7 8 7 9 18 26 25 27 31 39 38 39 41 40 38 32 32 29 32 32 32 30 28 29 28 27 30 31 32 34 36 35 33 33
4 4 3 2 2 5 9 7 4 3 1 3 5 8 8 6 4 7 2 11 17 19 21 23 28 35 38 41 40 39 34 32 27 31 32 34 32 30 31 29 30 31 31 32 33 36 38 35 34
3 5 2 2 2 6 2 3 7 7 2 3 3 7 8 8 6 2 2 4 11 20 22 24 24 23 33 37 38 39 39 36 34 31 34 34 33 33 35 33 33 31 31 31 32 34 36 37 35
7 9 5 7 5 4 3 5 6 3 1 7 6 5 7 9 7 8 7 3 1 7 12 16 18 20 26 31 37 37 35 36 36 35 34 33 35 37 36 35 33 31 31 31 31 31 34 36 33
6 9 7 5 2 1 3 6 9 4 6 6 8 7 8 8 9 9 10 16 12 5 7 8 11 16 22 28 26 33 37 37 39 36 32 32 33 32 33 34 34 33 31 31 31 30 30 31 32
7 8 3 2 3 5 3 4 5 6 5 4 8 8 9 10 13 12 11 17 23 19 11 4 3 9 13 19 26 29 31 31 29 29 31 32 32 32 30 30 31 33 33 32 30 29 28 27 26
6 5 3 4 5 5 2 5 3 5 1 6 8 11 11 11 13 12 11 19 21 25 23 19 15 7 1 10 17 21 23 24 25 26 27 28 29 30 31 31 32 33 30 28 29 27 25 22 21
7 12 7 4 5 2 4 4 7 11 13 12 11 11 11 12 12 12 14 19 21 23 26 22 19 18 11 6 9 14 18 19 21 23 24 25 26 28 29 31 31 32 31 32 29 24 19 18 15
Wind_Direction
359 92 129 48 69 63 246 248 273 254 131 83 263 260 246 250 206 235 334 165 179 171 169 167 167 165 162 157 154 150 147 144 139 137 134 133 130 127 124 121 117 113 108 108 110 110 108 105 107
13 100 65 84 107 182 259 246 226 230 40 330 23 353 40 266 13 303 33 164 181 172 168 168 169 165 167 157 155 152 149 147 143 140 137 135 132 129 125 122 119 116 113 111 110 111 110 107 107
85 59 88 125 148 200 222 233 249 307 346 4 1 33 190 280 327 297 261 226 180 172 170 173 171 169 166 158 156 154 152 150 146 144 139 135 133 130 126 124 120 116 112 109 112 114 109 106 103
96 23 31 113 224 254 204 203 304 344 18 65 208 293 309 61 329 303 305 179 175 172 175 172 173 176 165 159 158 156 154 151 149 146 141 136 134 131 129 125 119 115 112 111 115 114 114 115 109
51 59 70 274 258 264 236 222 171 150 292 294 315 257 248 9 3 11 164 164 167 173 175 176 181 176 165 161 161 158 156 154 151 147 142 139 137 135 131 127 122 118 116 117 117 117 121 117 114
46 91 80 236 247 282 285 235 167 178 208 283 276 266 248 9 41 75 156 166 167 174 178 181 185 179 163 162 162 161 158 156 153 149 144 142 140 137 134 131 126 124 123 125 123 122 120 113 111
118 97 214 245 253 295 259 225 199 201 195 249 240 232 272 333 22 163 166 168 169 175 178 183 184 181 170 165 165 164 161 158 155 151 148 145 143 141 138 133 129 126 126 127 123 121 120 114 111
111 100 162 241 228 266 272 331 10 258 275 240 182 225 246 263 8 174 170 166 172 180 184 179 177 177 174 170 166 167 163 161 158 155 155 154 148 141 140 138 134 130 128 128 126 122 122 119 118
140 82 210 237 169 239 252 22 304 338 299 289 204 215 187 167 120 159 168 173 178 189 185 185 180 179 178 173 170 168 165 163 162 163 161 157 153 152 151 145 138 132 131 132 128 127 127 125 126
122 156 217 209 193 216 212 174 262 302 247 284 292 277 191 157 142 101 89 115 189 184 176 186 183 180 181 178 175 170 167 169 171 170 166 162 160 155 151 146 137 132 133 136 132 136 133 131 132
181 205 208 241 225 220 259 231 205 215 244 223 228 228 197 193 176 153 154 132 57 211 180 183 182 184 184 184 178 174 174 176 176 173 169 165 161 157 154 148 145 145 145 142 140 141 136 133 135
210 230 203 242 219 248 223 224 237 212 238 219 233 214 194 201 199 198 186 167 191 31 178 188 186 187 189 189 185 182 180 181 178 174 172 170 164 161 159 156 155 155 154 146 146 146 140 137 137
223 241 244 230 259 240 244 222 227 247 238 239 235 226 213 211 204 214 206 191 182 246 234 203 193 191 193 193 191 187 185 183 181 177 175 173 169 165 163 161 158 159 158 156 152 152 145 141 142
288 260 267 271 247 237 225 238 153 264 233 239 216 225 224 208 209 213 217 206 213 224 261 268 201 194 195 195 195 193 189 185 183 180 178 177 172 167 165 164 165 164 163 160 159 156 149 143 144
294 308 308 241 223 225 173 262 224 249 270 254 229 235 245 220 218 225 206 238 237 220 214 235 199 197 195 196 198 197 192 188 186 183 180 179 177 175 173 172 170 166 165 164 159 157 150 144 143
315 292 326 289 153 218 147 265 270 276 222 259 245 238 242 240 215 225 224 241 254 217 216 220 192 197 197 197 197 198 196 192 188 186 185 182 182 182 178 177 173 168 164 165 163 160 151 146 142
326 252 222 313 197 122 183 270 267 264 214 264 253 247 238 264 230 219 228 240 245 219 220 195 188 194 197 197 198 200 197 196 193 191 190 190 188 188 187 181 174 172 166 167 167 164 159 151 144
210 230 250 241 214 345 251 262 248 264 268 255 257 242 239 217 244 229 218 219 275 290 232 187 181 191 193 195 197 200 200 200 198 198 197 195 194 194 192 185 180 177 174 171 169 168 166 158 149
115 221 265 264 264 285 261 265 276 238 244 252 249 242 242 229 234 229 219 221 259 44 145 167 173 183 181 188 193 200 201 203 202 204 204 198 199 199 195 190 188 184 183 179 177 169 164 157 153
245 272 277 281 266 195 283 287 281 262 242 238 247 247 243 233 174 229 203 184 207 168 162 163 178 177 182 187 192 193 198 204 204 204 210 205 203 202 199 195 193 190 190 184 182 174 164 165 160
216 204 222 237 314 270 314 282 311 284 258 268 253 245 224 229 203 192 187 181 184 188 175 188 184 182 185 190 185 188 194 198 202 207 210 208 208 207 205 203 202 199 196 191 188 184 177 168 174
238 203 228 244 294 252 36 291 309 285 307 256 290 266 243 214 247 165 190 178 186 196 178 189 188 192 192 198 191 190 185 186 201 206 208 212 210 211 211 211 208 208 203 200 195 192 187 182 183
225 187 197 197 191 340 312 289 265 286 312 339 330 312 276 211 221 206 183 187 193 192 189 186 190 196 196 200 201 197 194 202 203 207 208 210 211 210 212 214 212 213 210 207 204 199 196 197 190
166 104 78 84 116 269 199 187 276 253 201 344 347 344 325 296 207 259 188 188 175 188 187 191 189 191 194 198 201 201 201 200 200 205 206 208 210 209 212 216 217 218 216 213 211 209 207 206 205
160 107 321 339 181 239 330 163 262 261 195 3 26 3 0 20 43 21 165 189 174 168 173 184 191 192 196 199 201 206 208 209 208 208 208 208 209 211 214 214 217 218 219 219 218 216 216 215 215
179 189 167 197 204 254 1 237 248 201 42 131 85 42 37 45 31 31 34 61 249 191 182 180 187 187 196 199 204 209 215 216 220 221 217 216 219 220 219 217 220 222 222 221 222 222 221 221 221
185 203 178 105 73 249 227 283 294 313 82 104 98 77 52 44 52 24 23 39 70 108 172 191 208 205 198 206 203 208 214 212 217 222 223 224 224 227 227 223 220 222 223 224 222 221 221 225 225
160 153 132 180 191 232 284 270 241 16 78 103 99 69 50 33 40 35 33 34 44 55 57 105 153 218 213 213 214 216 217 219 220 228 229 228 231 230 230 226 224 224 222 222 223 222 220 222 225
160 201 178 144 158 170 169 259 231 267 234 129 71 48 44 38 35 29 28 31 38 48 48 48 46 57 106 230 233 227 228 228 227 230 232 234 234 233 231 229 223 219 218 222 218 217 215 216 219
208 188 172 167 183 169 133 276 12 49 68 66 50 42 37 37 35 26 22 23 26 26 29 33 36 37 32 36 230 232 236 234 231 234 237 238 237 239 236 229 224 220 214 215 211 203 197 195 197
Height
781 781 781 783 810 816 818 804 788 784 780 781 777 775 780 772 776 791 763 763 765 766 770 775 780 784 788 792 794 797 800 802 804 805 807 809 811 813 813 814 814 816 818 820 823 824 825 826 829
781 781 782 794 819 824 818 799 790 784 780 777 775 775 777 777 769 765 765 765 767 769 772 776 780 784 788 792 795 798 800 803 805 807 808 811 812 814 815 816 816 817 819 821 822 825 827 829 830
782 782 791 803 820 820 811 794 789 781 778 776 775 773 774 774 769 766 765 767 770 772 775 777 779 785 790 793 796 799 801 804 806 808 809 811 814 815 816 818 818 818 819 821 824 826 829 830 832
782 785 797 809 811 803 797 786 783 783 778 777 778 782 774 773 772 768 766 766 771 775 778 778 781 783 789 793 797 799 802 804 807 808 810 811 814 817 818 819 820 820 822 824 826 828 830 833 835
784 795 812 812 808 797 791 786 785 786 782 779 775 779 776 772 770 766 766 767 773 778 781 785 783 784 789 793 797 800 802 805 808 810 811 813 815 817 820 820 821 823 824 826 829 832 834 835 836
796 801 815 815 807 794 787 781 781 784 782 779 779 777 776 773 770 770 770 772 773 780 783 786 788 788 790 794 797 801 803 806 808 810 812 814 816 818 821 823 824 826 827 829 832 834 835 837 838
798 807 811 808 805 798 786 777 779 780 782 781 774 778 775 773 770 770 770 773 776 780 784 786 788 791 792 793 797 801 804 806 809 811 813 815 817 820 822 824 826 828 830 831 834 835 837 839 840
796 802 808 809 804 798 783 778 777 778 777 773 773 779 777 772 770 770 771 773 777 779 783 786 789 792 796 796 797 801 805 807 810 812 813 816 818 821 824 826 828 829 832 834 836 838 840 841 842
790 807 815 800 802 790 781 781 777 776 776 773 772 771 770 770 770 769 770 773 776 779 780 784 788 792 796 798 799 800 804 808 811 813 814 817 820 822 824 828 830 831 833 836 837 840 841 842 845
793 809 799 790 788 785 780 781 779 779 778 775 771 769 770 770 771 770 771 771 774 776 779 782 786 791 797 798 799 800 803 807 809 812 815 817 820 823 825 829 831 833 836 837 839 842 844 846 847
790 796 788 782 781 778 780 779 777 779 780 774 769 766 768 769 769 769 772 772 774 774 777 779 784 790 795 798 799 800 802 805 809 812 815 818 820 823 826 829 832 834 835 838 840 843 846 848 850
787 783 781 778 775 776 778 774 775 774 765 760 761 762 765 766 767 766 765 763 771 773 775 776 781 789 792 798 798 800 802 806 809 811 814 818 820 823 826 830 833 836 837 838 841 845 847 849 853
783 779 776 775 776 775 774 774 773 764 757 758 757 758 759 760 760 765 766 766 760 773 770 777 778 783 789 796 798 799 801 804 808 811 814 816 820 823 826 830 833 837 838 840 843 845 847 849 853
778 777 776 773 771 771 771 770 772 750 751 754 754 753 753 756 754 757 761 762 762 757 762 779 779 778 786 792 797 799 800 802 806 810 813 817 819 822 826 829 833 836 839 842 844 847 849 851 853
776 779 775 768 765 766 766 769 767 746 751 752 752 749 748 749 749 749 750 750 756 753 764 772 772 777 780 786 794 798 799 801 804 808 812 816 820 823 826 829 833 836 839 842 845 849 851 853 855
781 781 782 762 763 760 763 769 752 748 750 748 748 747 743 742 742 743 743 743 745 744 747 756 762 772 777 782 788 794 798 800 802 807 811 815 819 822 825 828 832 835 839 842 846 849 851 854 856
787 789 787 775 761 761 765 765 752 747 749 745 742 741 739 736 737 738 738 740 746 749 746 747 758 765 772 778 785 792 795 798 801 805 808 813 817 821 825 828 831 835 836 842 846 849 852 853 857
781 790 787 780 765 765 768 762 755 747 749 742 735 736 733 736 730 728 731 737 735 724 726 741 749 762 767 775 783 789 794 797 800 803 807 810 814 819 824 828 830 834 836 840 845 848 853 854 856
773 778 780 777 768 769 765 762 746 747 742 736 732 728 728 728 725 727 726 730 731 718 720 728 740 758 762 770 778 786 789 794 797 803 807 810 813 816 821 824 829 832 836 839 844 848 851 857 858
778 783 784 772 764 767 762 749 734 731 729 726 721 720 719 721 723 720 721 726 729 725 728 737 744 752 756 764 771 780 785 791 796 802 808 809 811 815 819 821 826 830 836 838 842 844 848 855 858
777 782 779 773 765 762 764 750 735 726 723 720 718 713 715 712 716 721 719 722 726 731 730 736 744 746 754 764 769 777 784 790 794 797 803 806 809 813 817 820 824 829 833 836 840 842 845 851 855
772 767 766 768 770 778 760 766 748 726 728 719 718 715 710 713 707 715 717 719 724 727 731 736 742 748 753 762 768 772 775 782 785 791 799 805 806 810 814 819 822 830 831 835 839 843 846 848 853
764 758 765 764 771 775 767 782 747 728 720 716 716 717 708 710 710 710 715 714 718 725 729 732 736 743 751 757 762 766 771 776 780 787 794 799 803 804 810 815 819 825 829 833 836 840 843 846 849
751 757 761 769 768 777 762 765 750 727 717 714 716 716 715 706 709 709 715 716 718 723 728 734 737 740 745 750 757 761 766 769 775 783 788 793 797 799 805 810 815 821 826 829 833 837 841 843 845
751 759 801 790 784 767 774 776 749 724 716 716 717 719 719 715 712 712 713 715 717 720 726 730 736 741 743 745 751 755 761 766 770 775 781 786 790 794 799 803 809 814 820 826 831 833 836 841 843
757 752 777 781 782 778 774 771 733 717 715 720 722 722 721 722 722 718 718 717 716 719 723 726 732 737 742 746 745 753 759 763 769 771 775 776 781 788 791 796 803 809 816 821 825 829 832 837 840
755 750 749 782 799 771 772 750 724 715 724 726 726 727 727 727 728 730 722 720 722 724 726 729 732 736 740 744 747 751 756 760 760 765 767 769 775 781 787 791 797 803 810 816 820 823 827 832 836
737 740 753 756 779 775 765 754 742 724 729 731 730 734 735 733 730 733 733 731 729 729 731 732 733 734 736 740 744 747 751 754 759 759 763 768 772 776 782 788 793 798 805 811 816 818 821 827 832
732 735 739 738 760 776 783 756 743 743 729 734 741 745 746 745 741 741 740 738 738 737 736 736 736 738 739 740 742 744 748 752 754 758 763 766 770 774 777 781 786 792 799 805 810 813 817 822 828
719 719 734 744 746 767 780 775 750 748 746 749 754 754 754 752 751 750 747 745 742 741 741 741 741 739 738 738 739 742 745 749 751 755 759 763 767 770 774 778 783 787 790 798 803 809 813 817 825